Regional Weather Roundup
Issued by NWS

Home | Current Version | Previous Version | Text Only | Print | Product List | Glossary Off
Versions: 1 2 3 4 5 6 7 8 9 10 11 12 13 14 15 16 17 18 19 20 21 22 23 24 25 26 27 28 29 30 31 32 33 34 35 36 37 38 39 40 41 42 43 44 45 46 47 48 49 50

000
ASUS43 KMPX 250801
RWRMN
WEATHER ROUNDUP FOR MINNESOTA
NATIONAL WEATHER SERVICE TWIN CITIES/CHANHASSEN MN
300 AM CDT TUE JUL 25 2017


NOTE: "FAIR" INDICATES FEW OR NO CLOUDS BELOW 12,000 FEET WITH NO
SIGNIFICANT WEATHER AND/OR OBSTRUCTIONS TO VISIBILITY. N/A MEANS
CURRENT SKY AND/OR WEATHER CONDITIONS ARE NOT AVAILABLE.

MNZ060>063-068>070-250900-
   Twin Cities Metro

CITY           SKY/WX    TMP DP  RH WIND       PRES   REMARKS
TWIN CITIES    CLOUDY    68  59  73 S13G20    30.04F
ST PAUL        MOCLDY    66  62  87 S13       30.05R
CRYSTAL        MOCLDY    69  58  67 S10       30.02S
BLAINE         LGT RAIN  70  61  73 S9G20     30.03S
LAKEVILLE      CLOUDY    63  63 100 S7        30.04F
EDEN PRAIRIE   MOCLDY    69  60  73 S12       30.02F
SOUTH ST PAUL  LGT RAIN  66  60  81 S5        30.05F
LAKE ELMO      FAIR      64  61  88 S9        30.06R
$$
MNZ001>005-007-008-013>017-022>024-027-028-250900-
   Northwest Minnesota

CITY           SKY/WX    TMP DP  RH WIND       PRES   REMARKS
BEMIDJI        PTCLDY    63  60  91 S6        29.96R
HALLOCK        CLOUDY    66  63  88 S12       29.85S
ROSEAU         CLOUDY    66  61  82 S12G17    29.89S
WARROAD        MOCLDY    64  61  88 S6        29.91S
CROOKSTON      MOCLDY    66  63  88 S10       29.88F
FOSSTON        CLOUDY    64  61  88 S9        29.93S
DETROIT LAKES  CLOUDY    64  63  94 SE12      29.93F
MOORHEAD       MOCLDY    68  63  83 S13       29.88F
PARK RAPIDS    MOCLDY    64  60  87 SE8       29.96F
MAHNOMEN       FAIR      65  62  88 S8        29.91F
$$
MNZ006-009>011-018-025>026-250900-
   North Central Minnesota

CITY           SKY/WX    TMP DP  RH WIND       PRES   REMARKS
BAUDETTE       CLOUDY    61  60  97 S8        29.93S
FLAG ISLAND    CLOUDY    68  64  88 S12       29.89F FOG
INTL FALLS     CLEAR     60  56  86 SE5       29.97R
WASKISH        PTCLDY    63  61  94 SE5       29.95F
BIG FORK       CLEAR     61  59  94 SE5       29.98F
LONGVILLE      CLEAR     61  59  94 CALM      29.98F
GRAND RAPIDS   CLEAR     58  57  97 CALM      30.04S
CRANE LAKE     CLEAR     57  55  94 S3        30.03S
ORR            CLEAR     57  54  88 SE6       30.00S
COOK           CLEAR     61  55  82 SE7       30.02F
WALKER         FAIR      64  60  86 SE7       29.96S
$$
MNZ012-019>021-037-250900-
   Northeast Minnesota

CITY           SKY/WX    TMP DP  RH WIND       PRES   REMARKS
DULUTH         PTCLDY    56  54  93 SE5       30.06F
ELY            CLOUDY    55  50  82 S3        30.06R
HIBBING        CLEAR     50  50 100 SE6       30.03F
EVELETH        CLOUDY    53  50  90 CALM      30.06S
DULUTH HARBOR  CLOUDY    63  59  88 NE7       30.06F
TWO HARBORS    PTCLDY    55  50  82 CALM      30.05S
SILVER BAY     PTCLDY    50  48  93 CALM      30.05S
GRAND MARAIS     N/A     52  50  93 CALM      30.05S
G MARAIS ARPRT PTCLDY    48  43  81 CALM      30.09S
$$
MNZ029>031-032-039>041-046>048-054>057-064-250900-
   West Central Minnesota

CITY           SKY/WX    TMP DP  RH WIND       PRES   REMARKS
FERGUS FALLS   CLEAR     68  63  83 SE14      29.90F
WHEATON        CLOUDY    68  64  88 SE12      29.89F
MORRIS         CLOUDY    68  64  88 SE14      29.90F
ALEXANDRIA     PTCLDY    66  63  90 SE8       29.96F
ELBOW LAKE     FAIR      66  63  89 E10       29.92F
WADENA         CLEAR     63  61  94 SE5       29.96F
GLENWOOD       CLOUDY    66  63  88 SE9       29.96F
BENSON         CLOUDY    70  63  78 S13G18    29.94F
ORTONVILLE     CLOUDY    66  64  94 SE10      29.90F
MADISON        LGT RAIN  72  66  83 SE14      29.93F
WILLMAR        FAIR      70  63  78 SE9G18    29.99F
$$
MNZ033>034-036-042>043-049>051-058-059-250900-
   Central Minnesota

CITY           SKY/WX    TMP DP  RH WIND       PRES   REMARKS
ST CLOUD       CLOUDY    66  64  93 SE10      30.01F
SAUK CENTRE    FAIR      65  63  93 SE8       29.98F
PAYNESVILLE    CLOUDY    68  63  84 SE10G16   29.99F
AITKIN         PTCLDY    64  61  88 SE8       30.00F
PINE RIVER     CLOUDY    61  59  94 CALM      30.02F
BRAINERD       CLOUDY    63  60  90 SE6       30.00F
STAPLES        CLOUDY    63  61  94 SE3       29.98F
LONG PRAIRIE   MOCLDY    64  61  88 SE12      29.99F
LITTLE FALLS   CLOUDY    64  59  82 SE8       30.00S
LITCHFIELD     CLOUDY    70  64  83 S3        30.03R
BUFFALO        CLOUDY    67  60  78 SE6       30.04R
MAPLE LAKE     CLOUDY    68  63  85 S3        30.04S
HUTCHINSON     CLOUDY    68  64  86 SE12      30.01F
$$
MNZ037-044-045-052-053-250900-
   East Central Minnesota

CITY           SKY/WX    TMP DP  RH WIND       PRES   REMARKS
PRINCETON      LGT RAIN  68  63  83 CALM      30.06R
MORA           RAIN      64  61  88 CALM      30.06S
CAMBRIDGE      MOCLDY    70  57  64 S3        30.04R
RUSH CITY      LGT RAIN  65  60  84 SE6       30.04F
MOOSE LAKE     MOCLDY    61  57  88 CALM      30.02F
HINCKLEY       FAIR      64  61  88 CALM      30.06R
CLOQUET        PTCLDY    57  54  88 E5        30.05F
MCGREGOR       PTCLDY    61  57  88 E5        30.03S
$$
MNZ071>073-080-081-089-090-097-098-250900-
   Southwest Minnesota

CITY           SKY/WX    TMP DP  RH WIND       PRES   REMARKS
MONTEVIDEO     MOCLDY    72  63  73 SE3       29.96F
GRANITE FALLS  LGT RAIN  69  65  88 SE12G17   29.96R
CANBY          CLOUDY    71  64  79 S16G26    29.93F
MARSHALL       CLOUDY    69  64  84 SE8       29.98S
REDWOOD FALLS  CLOUDY    68  63  84 S21       29.95F
OLIVIA         DRIZZLE   70  63  78 E10G24    29.99R
PIPESTONE      CLOUDY    68  63  83 SE8       29.96F
WINDOM         PTCLDY    68  61  77 SE10      30.02S
WORTHINGTON    PTCLDY    66  62  87 SE12      30.00F
JACKSON        CLEAR     66  61  82 S13       30.03S
TRACY          CLOUDY    68  65  89 S8        29.99F
SLAYTON        PTCLDY    65  62  90 SE8       30.00F
$$
MNZ065>067-074>077-082>085-091>093-250900-
   South Central Minnesota

CITY           SKY/WX    TMP DP  RH WIND       PRES   REMARKS
MANKATO        PTCLDY    66  62  87 SE12      30.04S
NEW ULM        MOCLDY    66  63  88 SE13      30.00F
ST JAMES       MOCLDY    66  64  94 SE13      30.02F
FAIRMONT       CLEAR     66  64  93 SE14      30.03F
GLENCOE        CLOUDY    68  65  89 SE10      30.01F
FARIBAULT      PTCLDY    66  61  82 SE7       30.07R
OWATONNA       PTCLDY    66  61  82 SE9       30.07R
WASECA         PTCLDY    63  59  88 SE8       30.06S
ALBERT LEA     CLEAR     66  61  82 S10G22    30.05F
$$
MNZ078>079-086>088-094>096-250900-
   Southeast Minnesota

CITY           SKY/WX    TMP DP  RH WIND       PRES   REMARKS
ROCHESTER      CLEAR     60  59  96 SE9       30.09F
RED WING       CLOUDY    68  57  68 SE9       30.05F
STANTON        CLOUDY    66  60  80 S6        30.04F
DODGE CENTER   PTCLDY    61  59  94 SE7       30.08F
WINONA         CLEAR     63  59  88 CALM      30.11R
AUSTIN         CLEAR     63  59  88 SE6       30.08F
PRESTON        CLEAR     60  57  88 S8        30.11S
$$
ABBREVIATIONS USED IN REMARKS
   TC - TEMPERATURES IN CELSIUS
  WCI - WIND CHILL INDEX
   HX - HEAT INDEX
  VSB - VISIBILITY
$$




USA.gov is the U.S. government's official web portal to all federal, state and local government web resources and services.